timestamp,surface_pressure_avg,surface_temp_avg,battery_voltage,lat,long
2023-08-15 00:09:00+00:00,340.6646,18.4,12.41,47.84626,-54.09684
2023-08-15 00:19:00+00:00,343.8179,18.7,12.41,47.84626,-54.09684
2023-08-15 00:29:00+00:00,340.5046,18.73,12.41,47.84626,-54.09684
2023-08-15 00:39:00+00:00,331.1829,18.89,12.41,47.84626,-54.09684
2023-08-15 00:49:00+00:00,325.2063,19.08,12.41,47.84626,-54.09684
2023-08-15 00:59:00+00:00,320.8997,19.45,12.41,47.84626,-54.09684
2023-08-15 01:09:00+00:00,317.3713,18.98,12.41,47.84626,-54.09684
2023-08-15 01:19:00+00:00,312.6013,18.83,12.41,47.84626,-54.09684
2023-08-15 01:29:00+00:00,309.3713,18.6,12.41,47.84626,-54.09684
2023-08-15 01:39:00+00:00,307.1463,18.52,12.41,47.84626,-54.09684
2023-08-15 01:49:00+00:00,302.8497,18.54,12.41,47.84626,-54.09684
2023-08-15 01:59:00+00:00,294.6447,18.62,12.41,47.84626,-54.09684
2023-08-15 02:09:00+00:00,284.888,18.7,12.41,47.84626,-54.09684
2023-08-15 02:19:00+00:00,276.9647,18.8,12.33,47.84626,-54.09684
2023-08-15 02:29:00+00:00,271.2664,18.94,12.33,47.84626,-54.09684
2023-08-15 02:39:00+00:00,262.8747,18.9,12.33,47.84626,-54.09684
2023-08-15 02:49:00+00:00,258.6647,18.96,12.33,47.84626,-54.09684
2023-08-15 02:59:00+00:00,255.483,19.07,12.33,47.84626,-54.09684
2023-08-15 03:09:00+00:00,248.7147,19.15,12.33,47.84626,-54.09684
2023-08-15 03:19:00+00:00,240.5748,19.22,12.33,47.84626,-54.09684
2023-08-15 03:29:00+00:00,237.2931,19.28,12.33,47.84626,-54.09684
2023-08-15 03:39:00+00:00,232.7214,19.2,12.33,47.84626,-54.09684
2023-08-15 03:49:00+00:00,224.3681,19.14,12.33,47.84626,-54.09684
2023-08-15 03:59:00+00:00,221.2414,19.14,12.33,47.84626,-54.09684
2023-08-15 04:09:00+00:00,222.2531,19.19,12.33,47.84626,-54.09684
2023-08-15 04:19:00+00:00,218.5997,19.2,12.33,47.84626,-54.09684
2023-08-15 04:29:00+00:00,213.4181,19.2,12.33,47.84626,-54.09684
2023-08-15 04:39:00+00:00,212.6714,19.12,12.33,47.84626,-54.09684
2023-08-15 04:49:00+00:00,210.4998,19.15,12.33,47.84626,-54.09684
2023-08-15 04:59:00+00:00,206.3098,19.1,12.33,47.84626,-54.09684
2023-08-15 05:09:00+00:00,203.8965,19.1,12.33,47.84626,-54.09684
2023-08-15 05:19:00+00:00,204.4648,19.09,12.33,47.84626,-54.09684
2023-08-15 05:29:00+00:00,202.1281,19.1,12.33,47.84626,-54.09684
2023-08-15 05:39:00+00:00,197.3932,19.07,12.33,47.84626,-54.09684
2023-08-15 05:49:00+00:00,199.5415,19.0,12.33,47.84626,-54.09684
2023-08-15 05:59:00+00:00,204.7964,18.9,12.33,47.84626,-54.09684
2023-08-15 06:09:00+00:00,206.7914,18.87,12.33,47.84626,-54.09684
2023-08-15 06:19:01+00:00,210.5098,18.8,12.33,47.84626,-54.09684
2023-08-15 06:29:01+00:00,217.3397,18.8,12.33,47.84626,-54.09684
2023-08-15 06:39:01+00:00,222.6047,18.8,12.33,47.84626,-54.09684
2023-08-15 06:49:01+00:00,223.7331,18.8,12.33,47.84626,-54.09684
2023-08-15 06:59:01+00:00,226.6064,18.79,12.33,47.84626,-54.09684
2023-08-15 07:09:01+00:00,228.1082,18.76,12.33,47.84626,-54.09684
2023-08-15 07:19:00+00:00,230.5348,18.77,12.33,47.84626,-54.09684
2023-08-15 07:29:00+00:00,235.0614,18.7,12.33,47.84626,-54.09684
2023-08-15 07:39:00+00:00,238.8781,18.76,12.33,47.84626,-54.09684
2023-08-15 07:49:00+00:00,242.3181,18.78,12.33,47.84626,-54.09684
2023-08-15 07:59:00+00:00,251.1847,18.29,12.33,47.84626,-54.09684
2023-08-15 08:09:00+00:00,261.1981,18.1,12.33,47.84626,-54.09684
2023-08-15 08:19:00+00:00,262.8564,18.26,12.33,47.84626,-54.09684
2023-08-15 08:29:00+00:00,265.4714,18.36,12.33,47.84626,-54.09684
2023-08-15 08:39:00+00:00,271.968,18.46,12.33,47.84626,-54.09684
2023-08-15 08:49:00+00:00,278.1631,18.19,12.33,47.84626,-54.09684
2023-08-15 08:59:00+00:00,276.3947,18.4,12.33,47.84626,-54.09684
2023-08-15 09:09:00+00:00,277.4048,18.4,12.33,47.84626,-54.09684
2023-08-15 09:19:00+00:00,284.2347,18.23,12.33,47.84626,-54.09684
2023-08-15 09:29:00+00:00,292.5231,18.39,12.33,47.84626,-54.09684
2023-08-15 09:39:00+00:00,299.158,18.3,12.33,47.84626,-54.09684
2023-08-15 09:49:00+00:00,304.963,18.25,12.33,47.84626,-54.09684
2023-08-15 09:59:00+00:00,311.5696,18.01,12.33,47.84626,-54.09684
2023-08-15 10:09:00+00:00,314.0197,18.03,12.33,47.84626,-54.09684
2023-08-15 10:19:00+00:00,314.0148,17.97,12.33,47.84626,-54.09684
2023-08-15 10:29:00+00:00,315.7197,17.9,12.33,47.84626,-54.09684
2023-08-15 10:39:00+00:00,319.1995,17.9,12.33,47.84626,-54.09684
2023-08-15 10:49:00+00:00,319.1512,17.99,12.33,47.84626,-54.09684
2023-08-15 10:59:00+00:00,316.3646,17.9,12.33,47.84626,-54.09684
2023-08-15 11:09:00+00:00,315.9464,18.0,12.33,47.84626,-54.09684
2023-08-15 11:19:01+00:00,320.823,18.1,12.33,47.84626,-54.09684
2023-08-15 11:29:01+00:00,323.9329,18.1,12.33,47.84626,-54.09684
2023-08-15 11:39:01+00:00,321.4313,18.09,12.33,47.84626,-54.09684
2023-08-15 11:49:01+00:00,318.363,18.1,12.33,47.84626,-54.09684
2023-08-15 11:59:01+00:00,315.9164,18.1,12.33,47.84626,-54.09684
2023-08-15 12:09:01+00:00,316.1395,18.1,12.33,47.84626,-54.09684
2023-08-15 12:19:00+00:00,313.6896,18.1,12.33,47.84626,-54.09684
2023-08-15 12:29:00+00:00,310.4913,18.1,12.33,47.84626,-54.09684
2023-08-15 12:39:00+00:00,308.3997,18.1,12.33,47.84626,-54.09684
2023-08-15 12:49:00+00:00,303.3864,18.1,12.33,47.84626,-54.09684
2023-08-15 12:59:00+00:00,303.1313,18.1,12.33,47.84626,-54.09684
2023-08-15 13:09:00+00:00,302.4897,18.1,12.33,47.84626,-54.09684
2023-08-15 13:19:00+00:00,296.3313,18.1,12.41,47.84626,-54.09684
2023-08-15 13:29:00+00:00,285.1147,18.1,12.41,47.84626,-54.09684
2023-08-15 13:39:00+00:00,285.1663,18.1,12.41,47.84626,-54.09684
2023-08-15 13:49:00+00:00,285.6164,18.12,12.41,47.84626,-54.09684
2023-08-15 13:59:00+00:00,274.678,18.19,12.41,47.84626,-54.09684
2023-08-15 14:09:00+00:00,260.9464,18.2,12.41,47.84626,-54.09684
2023-08-15 14:19:00+00:00,260.1765,18.2,12.57,47.84626,-54.09684
2023-08-15 14:29:00+00:00,259.2231,18.2,12.57,47.84626,-54.09684
2023-08-15 14:39:00+00:00,247.2198,18.2,12.57,47.84626,-54.09684
2023-08-15 14:49:00+00:00,238.0098,18.2,12.57,47.84626,-54.09684
2023-08-15 14:59:00+00:00,238.9264,18.2,12.57,47.84626,-54.09684
2023-08-15 15:09:00+00:00,236.2264,18.2,12.57,47.84626,-54.09684
2023-08-15 15:19:00+00:00,224.1464,18.2,12.73,47.84626,-54.09684
2023-08-15 15:29:00+00:00,218.2447,18.2,12.73,47.84626,-54.09684
2023-08-15 15:39:00+00:00,221.9914,18.16,12.73,47.84626,-54.09684
2023-08-15 15:49:00+00:00,215.3648,18.1,12.73,47.84626,-54.09684
2023-08-15 15:59:00+00:00,203.8181,18.1,12.73,47.84626,-54.09684
2023-08-15 16:09:00+00:00,202.5531,18.1,12.73,47.84626,-54.09684
2023-08-15 16:19:00+00:00,204.4565,18.1,12.65,47.84626,-54.09684
2023-08-15 16:29:00+00:00,200.6298,18.1,12.65,47.84626,-54.09684
2023-08-15 16:39:00+00:00,200.4948,18.0,12.65,47.84626,-54.09684
2023-08-15 16:49:00+00:00,201.6581,18.0,12.65,47.84626,-54.09684
2023-08-15 16:59:00+00:00,198.0231,18.0,12.65,47.84626,-54.09684
2023-08-15 17:09:00+00:00,195.5864,18.0,12.65,47.84626,-54.09684
2023-08-15 17:19:00+00:00,195.4597,18.0,12.65,47.84626,-54.09684
2023-08-15 17:29:00+00:00,195.7681,18.0,12.65,47.84626,-54.09684
2023-08-15 17:39:00+00:00,196.7765,17.97,12.65,47.84626,-54.09684
2023-08-15 17:49:00+00:00,202.0548,17.9,12.65,47.84626,-54.09684
2023-08-15 17:59:00+00:00,206.1197,17.9,12.65,47.84626,-54.09684
2023-08-15 18:09:00+00:00,203.5598,17.9,12.65,47.84626,-54.09684
2023-08-15 18:19:00+00:00,207.3598,17.9,12.49,47.84626,-54.09684
2023-08-15 18:29:00+00:00,214.7331,17.89,12.49,47.84626,-54.09684
2023-08-15 18:39:00+00:00,217.7014,17.9,12.49,47.84626,-54.09684
2023-08-15 18:49:00+00:00,216.7981,17.9,12.49,47.84626,-54.09684
2023-08-15 18:59:00+00:00,220.9447,17.89,12.49,47.84626,-54.09684
2023-08-15 19:09:00+00:00,227.0131,17.87,12.49,47.84626,-54.09684
2023-08-15 19:19:00+00:00,230.053,17.86,12.49,47.84626,-54.09684
2023-08-15 19:29:00+00:00,230.6381,17.85,12.49,47.84626,-54.09684
2023-08-15 19:39:00+00:00,236.1581,17.8,12.49,47.84626,-54.09684
2023-08-15 19:49:00+00:00,244.9564,17.8,12.49,47.84626,-54.09684
2023-08-15 19:59:00+00:00,253.0981,17.8,12.49,47.84626,-54.09684
2023-08-15 20:09:00+00:00,257.3498,17.79,12.49,47.84626,-54.09684
2023-08-15 20:19:00+00:00,261.9781,17.78,12.41,47.84626,-54.09684
2023-08-15 20:29:00+00:00,265.8663,17.78,12.41,47.84626,-54.09684
2023-08-15 20:39:00+00:00,272.6431,17.79,12.41,47.84626,-54.09684
2023-08-15 20:49:00+00:00,276.4247,17.61,12.41,47.84626,-54.09684
2023-08-15 20:59:00+00:00,280.7247,17.6,12.41,47.84626,-54.09684
2023-08-15 21:09:00+00:00,285.2047,17.6,12.41,47.84626,-54.09684
2023-08-15 21:19:01+00:00,293.1297,17.67,12.41,47.84626,-54.09684
2023-08-15 21:29:01+00:00,297.1896,17.65,12.41,47.84626,-54.09684
2023-08-15 21:39:01+00:00,307.3314,17.6,12.41,47.84626,-54.09684
2023-08-15 21:49:01+00:00,314.9913,17.6,12.41,47.84626,-54.09684
2023-08-15 21:59:01+00:00,320.8347,17.6,12.41,47.84626,-54.09684
2023-08-15 22:09:01+00:00,325.9197,17.6,12.41,47.84626,-54.09684
2023-08-15 22:19:00+00:00,337.0763,17.6,12.41,47.84626,-54.09684
2023-08-15 22:29:00+00:00,341.1979,17.57,12.41,47.84626,-54.09684
2023-08-15 22:39:00+00:00,341.0613,17.59,12.41,47.84626,-54.09684
2023-08-15 22:49:00+00:00,343.6113,17.5,12.41,47.84626,-54.09684
2023-08-15 22:59:00+00:00,348.7213,17.4,12.41,47.84626,-54.09684
2023-08-15 23:09:00+00:00,349.1896,17.5,12.41,47.84626,-54.09684
2023-08-15 23:19:00+00:00,350.3163,17.53,12.33,47.84626,-54.09684
2023-08-15 23:29:00+00:00,352.9396,17.4,12.33,47.84626,-54.09684
2023-08-15 23:39:00+00:00,354.0464,17.37,12.33,47.84626,-54.09684
2023-08-15 23:49:00+00:00,350.8947,17.57,12.33,47.84626,-54.09684
2023-08-15 23:59:00+00:00,355.6246,17.5,12.33,47.84626,-54.09684
